Nassau, Bahamas

10:37 PM EDT on March 25, 2017 (GMT -0400)
Nassau International

Weather History for MYNN - April, 2014

Change the Weather History Date:

Sunday, April 20, 2014

  Actual Average Record
Temperature  
Mean Temperature 74 °F -  
Max Temperature 84 °F 84 °F 90 °F (2015)
Min Temperature 65 °F 69 °F 64 °F (1997)
Cooling Degree Days 10    
Growing Degree Days 24 (Base 50)    
Moisture  
Dew Point 66 °F    
Average Humidity 71    
Maximum Humidity 94    
Minimum Humidity 50    
Precipitation  
Precipitation 0.02 in 0.13 in - ()
Sea Level Pressure  
Sea Level Pressure 29.99 in    
Wind  
Wind Speed 9 mph ()    
Max Wind Speed 16 mph    
Max Gust Speed -    
Visibility 6.9 miles    
Events      
Averages and records for this station are not official NWS values.
T = Trace of Precipitation, MM = Missing Value Source: Averaged Metar Reports

Daily Weather History Graph

Daily Weather History Graph

Search for Another Location

Airport or City:

Trip Planner

Search our weather history database for the weather conditions in past years. The results will help you decide how hot, cold, wet, or windy it might be!

Date:

Astronomy

Apr. 20, 2014 Rise Set
Actual Time 6:43 AM EDT 7:34 PM EDT
Civil Twilight 6:19 AM EDT 7:58 PM EDT
Nautical Twilight 5:51 AM EDT 8:26 PM EDT
Astronomical Twilight 5:23 AM EDT 8:54 PM EDT
Moon 12:00 AM EDT (4/20) 11:13 AM EDT (4/20)
Length of Visible Light 13h 38m
Length of Day
12h 51m
Waning Gibbous, 69% of the Moon is Illuminated
Apr 20
Waning Gibbous
Apr 22
Last Quarter
Apr 29
New
May 6
First Quarter
May 14
Full

Hourly Weather History & Observations

Time (EDT) Temp. Heat Index Dew Point Humidity Pressure Visibility Wind Dir Wind Speed Gust Speed Precip Events Conditions
12:00 AM 77.0 °F - 73.4 °F 89% 29.99 in 6.2 mi South 6.9 mph - N/A   Partly Cloudy
1:00 AM 77.0 °F - 73.4 °F 89% 29.97 in 6.2 mi South 8.1 mph - N/A   Unknown
2:00 AM 73 °F - 71 °F 89% 29.96 in 9 mi SSW 10.4 mph - -   Scattered Clouds
2:00 AM 73.4 °F - 71.6 °F 94% 29.96 in 6.2 mi SSW 8.1 mph - N/A   Unknown
3:00 AM 71.6 °F - 69.8 °F 94% 29.95 in 6.2 mi WSW 8.1 mph - N/A   Mostly Cloudy
4:00 AM 73.4 °F - 71.6 °F 94% 29.95 in - North - - N/A   Mostly Cloudy
5:00 AM 75 °F - 71 °F 82% 29.95 in 9 mi West 11.5 mph - -  
5:00 AM 75.2 °F - 69.8 °F 83% 29.94 in 6.2 mi West 11.5 mph - N/A   Mostly Cloudy
6:00 AM 75.2 °F - 68.0 °F 78% 29.96 in 6.2 mi WNW 9.2 mph - N/A   Mostly Cloudy
7:00 AM 73.4 °F - 66.2 °F 78% 29.97 in 6.2 mi NW 10.4 mph - N/A   Scattered Clouds
8:00 AM 75 °F - 68 °F 72% 29.99 in 9 mi WNW 13.8 mph - -   Partly Cloudy
8:00 AM 75.2 °F - 68.0 °F 78% 29.99 in 6.2 mi WNW 13.8 mph - N/A   Mostly Cloudy
9:00 AM 75.2 °F - 64.4 °F 69% 30.00 in 6.2 mi NW 11.5 mph - N/A   Scattered Clouds
10:00 AM 75.2 °F - 64.4 °F 69% 30.03 in 6.2 mi NNW 13.8 mph - N/A   Scattered Clouds
11:00 AM 77 °F - 65 °F 59% 30.05 in 9 mi WNW 16.1 mph - -   Partly Cloudy
11:00 AM 77.0 °F - 66.2 °F 69% 30.04 in 6.2 mi WNW 16.1 mph - N/A   Scattered Clouds
12:00 PM 77.0 °F - 62.6 °F 61% 30.04 in 6.2 mi WNW 13.8 mph - N/A   Scattered Clouds
1:00 PM 77.0 °F - 62.6 °F 61% 30.03 in 6.2 mi NW 11.5 mph - N/A   Mostly Cloudy
2:00 PM 81 °F - 65 °F 50% 30.03 in 9 mi WNW 13.8 mph - -   Mostly Cloudy
2:00 PM 80.6 °F 82.7 °F 66.2 °F 61% 30.03 in 6.2 mi WNW 13.8 mph - N/A   Mostly Cloudy
3:00 PM 78.8 °F - 64.4 °F 61% 30.02 in 6.2 mi WNW 9.2 mph - N/A   Mostly Cloudy
4:00 PM 78.8 °F - 62.6 °F 57% 30.01 in 6.2 mi WNW 16.1 mph - N/A   Scattered Clouds
5:00 PM 80 °F - 65 °F 50% 29.99 in 9 mi WNW 13.8 mph - -   Partly Cloudy
5:00 PM 80.6 °F 82.3 °F 64.4 °F 58% 29.99 in 6.2 mi WNW 13.8 mph - N/A   Scattered Clouds
6:00 PM 77.0 °F - 62.6 °F 61% 29.98 in 6.2 mi WNW 11.5 mph - N/A   Scattered Clouds
7:00 PM 75.2 °F - 62.6 °F 65% 29.98 in 6.2 mi WNW 11.5 mph - N/A   Partly Cloudy
8:00 PM 76 °F - 67 °F 66% 29.93 in 8 mi North 6.9 mph - -   Partly Cloudy
8:00 PM 75.2 °F - 64.4 °F 69% 29.99 in 6.2 mi WNW 9.2 mph - N/A   Scattered Clouds
9:00 PM 73.4 °F - 60.8 °F 65% 30.01 in 6.2 mi WNW 9.2 mph - N/A   Partly Cloudy
10:00 PM 73.4 °F - 60.8 °F 65% 30.03 in 6.2 mi West 11.5 mph - N/A   Partly Cloudy
11:00 PM 73 °F - 65 °F 69% 30.03 in 9 mi WNW 4.6 mph - -   Scattered Clouds
11:00 PM 73.4 °F - 64.4 °F 73% 30.03 in 6.2 mi WNW 4.6 mph - N/A   Partly Cloudy